Simultaneous Nadir Overpasses (SNOs) Predictions

Prediction of SNOs between AQUA and NPP Satellite Orbit:

Table of predicted SNOs for the next 14.0 days since TLE Epoch: 2/6/2015
Index Date (AQUA) Time (AQUA) Lat,Lon (AQUA) SZA (AQUA ) Date (NPP) Time (NPP) Lat,Lon (NPP) SZA (NPP ) Distance(km) Time Diff (sec)
1 02/07/2015 02:19:28 -62.25,-174.98 53.24 02/07/2015 02:18:37 -62.25,-174.96 53.18 1.18 51
2 02/07/2015 03:07:13 67.92, -2.02 121.34 02/07/2015 03:07:37 67.92, -1.99 121.31 1.07 24
3 02/09/2015 18:35:30 -63.87, -57.80 55.56 02/09/2015 18:35:02 -63.86, -57.82 55.51 1.15 28
4 02/09/2015 19:23:20 69.21, 115.46 119.26 02/09/2015 19:24:07 69.21, 115.46 119.21 0.28 47
5 02/12/2015 10:51:15 -66.39, 60.43 58.80 02/12/2015 10:51:10 -66.39, 60.43 58.80 0.14 5
6 02/12/2015 11:39:32 70.17,-127.35 117.46 02/12/2015 11:40:43 70.16,-127.38 117.40 1.48 71
7 02/15/2015 02:19:18 62.74, 5.42 123.84 02/15/2015 02:18:22 62.74, 5.43 123.91 0.45 56
8 02/15/2015 03:07:07 -68.37, 178.53 61.62 02/15/2015 03:07:26 -68.38, 178.55 61.65 0.94 19
9 02/17/2015 18:35:13 64.61, 122.88 121.16 02/17/2015 18:34:42 64.61, 122.85 121.21 1.36 31




NCC Satellite Simultaneous Nadir Overpasses (SNOs) Prediction Service
